Meteo orario Abilene

Oggi, 8 Marzo, Lunedi

Tempo Temperatura Precipitazioni Vento Pressione Umidità
00:00 +9°C° 0 mm 5 m/s 722 mm Hg 58%
01:00 +10°C° 0 mm 4 m/s 722 mm Hg 64%
02:00 +8°C° 0 mm 4 m/s 722 mm Hg 70%
03:00 +8°C° 0 mm 4 m/s 722 mm Hg 75%
04:00 +8°C° 0 mm 4 m/s 722 mm Hg 80%
05:00 +7°C° 0 mm 4 m/s 722 mm Hg 84%
06:00 +9°C° 0 mm 5 m/s 722 mm Hg 81%
07:00 +10°C° 0 mm 6 m/s 723 mm Hg 78%
08:00 +11°C° 0 mm 8 m/s 723 mm Hg 74%
09:00 +13°C° 0 mm 8 m/s 723 mm Hg 67%
10:00 +16°C° 0 mm 8 m/s 723 mm Hg 60%
11:00 +18°C° 0 mm 8 m/s 723 mm Hg 54%
12:00 +20°C° 0 mm 8 m/s 723 mm Hg 52%
13:00 +21°C° 0 mm 8 m/s 722 mm Hg 50%
14:00 +22°C° 0 mm 8 m/s 722 mm Hg 48%
15:00 +21°C° 0 mm 8 m/s 722 mm Hg 50%
16:00 +20°C° 0 mm 8 m/s 721 mm Hg 52%
17:00 +20°C° 0 mm 8 m/s 721 mm Hg 55%
18:00 +18°C° 0 mm 8 m/s 721 mm Hg 58%
19:00 +16°C° 0 mm 8 m/s 721 mm Hg 62%
20:00 +15°C° 0 mm 9 m/s 721 mm Hg 66%
21:00 +15°C° 0 mm 9 m/s 721 mm Hg 71%
22:00 +15°C° 0 mm 9 m/s 721 mm Hg 76%
23:00 +13°C° 0 mm 10 m/s 721 mm Hg 81%

Domani, 9 Marzo, Martedi

Tempo Temperatura Precipitazioni Vento Pressione Umidità
00:00 +13°C° 0 mm 10 m/s 720 mm Hg 82%
01:00 +13°C° 0 mm 10 m/s 720 mm Hg 83%
02:00 +13°C° 0 mm 11 m/s 719 mm Hg 84%
03:00 +13°C° 0 mm 10 m/s 719 mm Hg 83%
04:00 +13°C° 0 mm 9 m/s 719 mm Hg 81%
05:00 +13°C° 0 mm 9 m/s 718 mm Hg 79%
06:00 +15°C° 0 mm 9 m/s 719 mm Hg 77%
07:00 +14°C° 0 mm 10 m/s 719 mm Hg 75%
08:00 +16°C° 0 mm 11 m/s 720 mm Hg 73%
09:00 +17°C° 0 mm 11 m/s 720 mm Hg 68%
10:00 +19°C° 0 mm 10 m/s 720 mm Hg 63%
11:00 +21°C° 0 mm 10 m/s 720 mm Hg 58%
12:00 +22°C° 0 mm 11 m/s 719 mm Hg 56%
13:00 +23°C° 0 mm 11 m/s 718 mm Hg 54%
14:00 +23°C° 0 mm 11 m/s 717 mm Hg 52%
15:00 +23°C° 0 mm 10 m/s 717 mm Hg 54%
16:00 +22°C° 0 mm 9 m/s 716 mm Hg 56%
17:00 +22°C° 0 mm 9 m/s 716 mm Hg 57%
18:00 +21°C° 0 mm 9 m/s 716 mm Hg 61%
19:00 +19°C° 0 mm 9 m/s 716 mm Hg 64%
20:00 +18°C° 0 mm 10 m/s 716 mm Hg 67%
21:00 +18°C° 0 mm 10 m/s 716 mm Hg 71%
22:00 +18°C° 0 mm 11 m/s 716 mm Hg 75%
23:00 +17°C° 0 mm 11 m/s 715 mm Hg 78%

Dopodomani, 10 Marzo, Mercoledi

Tempo Temperatura Precipitazioni Vento Pressione Umidità
00:00 +17°C° 0 mm 11 m/s 715 mm Hg 79%
01:00 +17°C° 0 mm 11 m/s 715 mm Hg 79%
02:00 +17°C° 0 mm 11 m/s 715 mm Hg 79%
03:00 +17°C° 0 mm 11 m/s 715 mm Hg 80%
04:00 +17°C° 0 mm 11 m/s 715 mm Hg 81%
05:00 +16°C° 0 mm 10 m/s 715 mm Hg 82%
06:00 +17°C° 0 mm 10 m/s 715 mm Hg 79%
07:00 +18°C° 0 mm 10 m/s 715 mm Hg 76%
08:00 +18°C° 0 mm 10 m/s 715 mm Hg 73%
09:00 +21°C° 0 mm 10 m/s 715 mm Hg 66%
10:00 +23°C° 0 mm 10 m/s 715 mm Hg 60%
11:00 +26°C° 0 mm 10 m/s 715 mm Hg 53%
12:00 +26°C° 0 mm 10 m/s 714 mm Hg 51%
13:00 +27°C° 0 mm 10 m/s 714 mm Hg 48%
14:00 +28°C° 0 mm 10 m/s 713 mm Hg 46%
15:00 +27°C° 0 mm 9 m/s 713 mm Hg 49%
16:00 +26°C° 0 mm 9 m/s 713 mm Hg 53%
17:00 +24°C° 0 mm 9 m/s 712 mm Hg 56%
18:00 +23°C° 0 mm 9 m/s 712 mm Hg 62%
19:00 +21°C° 0 mm 8 m/s 713 mm Hg 68%
20:00 +20°C° 0 mm 8 m/s 713 mm Hg 73%
21:00 +19°C° 0 mm 9 m/s 713 mm Hg 75%
22:00 +19°C° 0 mm 9 m/s 713 mm Hg 76%
23:00 +19°C° 0 mm 10 m/s 713 mm Hg 77%

11 Marzo, Giovedi

Tempo Temperatura Precipitazioni Vento Pressione Umidità
00:00 +18°C° 0 mm 9 m/s 712 mm Hg 79%
01:00 +18°C° 0 mm 8 m/s 712 mm Hg 81%
02:00 +18°C° 0 mm 7 m/s 712 mm Hg 82%
03:00 +17°C° 0 mm 7 m/s 712 mm Hg 83%
04:00 +17°C° 0 mm 7 m/s 713 mm Hg 83%
05:00 +17°C° 0 mm 7 m/s 713 mm Hg 84%
06:00 +17°C° 0 mm 8 m/s 713 mm Hg 81%
07:00 +18°C° 0 mm 8 m/s 714 mm Hg 78%
08:00 +20°C° 0 mm 8 m/s 715 mm Hg 75%
09:00 +21°C° 0 mm 8 m/s 715 mm Hg 67%
10:00 +23°C° 0 mm 7 m/s 715 mm Hg 59%
11:00 +26°C° 0 mm 6 m/s 715 mm Hg 51%
12:00 +27°C° 0 mm 5 m/s 715 mm Hg 47%
13:00 +28°C° 0 mm 5 m/s 714 mm Hg 43%
14:00 +28°C° 0 mm 5 m/s 714 mm Hg 38%
15:00 +27°C° 0 mm 5 m/s 714 mm Hg 45%
16:00 +26°C° 0 mm 5 m/s 714 mm Hg 51%
17:00 +25°C° 0 mm 5 m/s 714 mm Hg 57%
18:00 +23°C° 0 mm 7 m/s 714 mm Hg 61%
19:00 +22°C° 0 mm 8 m/s 714 mm Hg 66%
20:00 +22°C° 0 mm 9 m/s 714 mm Hg 70%
21:00 +21°C° 0 mm 9 m/s 714 mm Hg 73%
22:00 +19°C° 0 mm 10 m/s 714 mm Hg 75%
23:00 +19°C° 0 mm 10 m/s 715 mm Hg 77%

12 Marzo, Venerdi

Tempo Temperatura Precipitazioni Vento Pressione Umidità
00:00 +19°C° 0 mm 10 m/s 714 mm Hg 80%
01:00 +18°C° 0 mm 10 m/s 714 mm Hg 82%
02:00 +18°C° 0 mm 9 m/s 714 mm Hg 85%
03:00 +18°C° 0 mm 8 m/s 714 mm Hg 86%
04:00 +18°C° 0 mm 8 m/s 714 mm Hg 87%
05:00 +18°C° 0 mm 7 m/s 714 mm Hg 88%
06:00 +18°C° 0 mm 7 m/s 715 mm Hg 85%
07:00 +20°C° 0 mm 7 m/s 715 mm Hg 83%
08:00 +21°C° 0 mm 8 m/s 715 mm Hg 80%
09:00 +22°C° 0.1 mm 8 m/s 715 mm Hg 76%
10:00 +23°C° 0.1 mm 9 m/s 715 mm Hg 71%
11:00 +24°C° 0.1 mm 9 m/s 715 mm Hg 66%
12:00 +26°C° 0 mm 9 m/s 715 mm Hg 62%
13:00 +27°C° 0 mm 9 m/s 715 mm Hg 57%
14:00 +28°C° 0 mm 9 m/s 715 mm Hg 53%
15:00 +27°C° 0 mm 8 m/s 714 mm Hg 55%
16:00 +26°C° 0 mm 7 m/s 714 mm Hg 58%
17:00 +26°C° 0 mm 7 m/s 714 mm Hg 60%
18:00 +24°C° 0.1 mm 7 m/s 714 mm Hg 65%
19:00 +22°C° 0.1 mm 8 m/s 714 mm Hg 70%
20:00 +21°C° 0.1 mm 8 m/s 714 mm Hg 75%
21:00 +21°C° 0 mm 8 m/s 714 mm Hg 79%
22:00 +20°C° 0 mm 8 m/s 714 mm Hg 82%
23:00 +18°C° 0 mm 7 m/s 714 mm Hg 86%

13 Marzo, Sabato

Tempo Temperatura Precipitazioni Vento Pressione Umidità
00:00 +18°C° 0 mm 8 m/s 713 mm Hg 84%
01:00 +20°C° 0 mm 8 m/s 713 mm Hg 81%
02:00 +19°C° 0 mm 9 m/s 713 mm Hg 79%
03:00 +18°C° 0 mm 8 m/s 712 mm Hg 83%
04:00 +18°C° 0 mm 8 m/s 712 mm Hg 86%
05:00 +18°C° 0 mm 8 m/s 711 mm Hg 89%
06:00 +18°C° 0.2 mm 8 m/s 712 mm Hg 87%
07:00 +20°C° 0.2 mm 8 m/s 712 mm Hg 86%
08:00 +20°C° 0.2 mm 8 m/s 712 mm Hg 85%
09:00 +20°C° 0.5 mm 8 m/s 712 mm Hg 71%
10:00 +18°C° 0.5 mm 8 m/s 712 mm Hg 57%
11:00 +17°C° 0.5 mm 9 m/s 713 mm Hg 43%
12:00 +18°C° 0 mm 9 m/s 713 mm Hg 37%
13:00 +18°C° 0 mm 8 m/s 713 mm Hg 32%
14:00 +20°C° 0 mm 8 m/s 713 mm Hg 26%
15:00 +18°C° 0 mm 7 m/s 713 mm Hg 23%
16:00 +19°C° 0 mm 6 m/s 713 mm Hg 21%
17:00 +19°C° 0 mm 5 m/s 713 mm Hg 18%
18:00 +17°C° 0 mm 5 m/s 714 mm Hg 18%
19:00 +17°C° 0 mm 4 m/s 714 mm Hg 18%
20:00 +15°C° 0 mm 4 m/s 714 mm Hg 18%
21:00 +16°C° 0 mm 3 m/s 714 mm Hg 18%
22:00 +15°C° 0 mm 2 m/s 714 mm Hg 19%
23:00 +15°C° 0 mm 2 m/s 714 mm Hg 20%
Mostrare altro

Abbiamo bisogno del tuo consenso

Meteoprog e i nostri fornitori di servizi possono memorizzare e accedere a dati personali come cookie, identificatori di dispositivi o altre tecnologie simili sul tuo dispositivo e possono elaborare tali dati per personalizzare i contenuti e gli annunci, nonché fornire funzionalità dei social media e analizzarne il traffico.

  • Archiviare e/o accedere alle informazioni sul tuo dispositivo

    Cookie, identificatori di dispositivi o altre informazioni possono essere memorizzati o resi accessibili sul tuo dispositivo per le finalità sopra indicate.

  • Annunci e contenuti personalizzati, misurazione di annunci e contenuti, approfondimenti sul pubblico e sviluppo di prodotti

    Gli annunci e i contenuti possono essere personalizzati in base a un profilo. È possibile aggiungere più dati per personalizzare meglio annunci e contenuti. È possibile misurare il rendimento degli annunci e dei contenuti. È possibile ricavare informazioni sul pubblico che ha visto gli annunci e i contenuti. Tali dati possono essere utilizzati per sviluppare o migliorare l'esperienza, i sistemi e il software dell'utente.

Cliccando su “Accetto”, acconsenti all'uso di cookie, identificatori di dispositivo, web beacon o altre tecnologie simili. Puoi modificare le impostazioni nel browser del tuo dispositivo.

Per determinati scopi, è possibile fare affidamento su interessi legali, piuttosto che sul consenso. Puoi approfondire questo argomento consultando la nostra Informativa sulla privacy e sui cookie.